{"data":{"norad_id":53701,"intl_designator":"2022-107B","name":"STARLINK-4711","alt_names":[],"object_type":"PAYLOAD","status":"ACTIVE","operator":null,"country":"US","launch_date":"2022-09-05","launch_site_code":"AFETR","launch_vehicle":null,"mission":null,"orbit_class":"UNKNOWN","rcs_meters":null,"size_class":null,"mass_kg":null,"dimensions":null,"purposes":["comms"],"wikipedia_slug":null,"has_3d_model":false,"image_url":null,"decayed_at":null,"tle_current":{"epoch":"2026-09-20T05:40:57.279648Z","epoch_age_seconds":104001,"freshness":"FRESH","line1":"1 53701U 22107B   26263.23677407  .00000365  00000+0  21386-4 0  9990","line2":"2 53701  53.1638  86.6191 0001348  90.2575 269.8583 15.35398697224273","mean_motion":15.35398697,"eccentricity":0.0001348,"inclination_deg":53.1638,"raan_deg":86.6191,"arg_perigee_deg":90.2575,"mean_anomaly_deg":269.8583,"bstar":2.1386e-5,"rev_number":22427,"period_min":93.786714995499,"perigee_km":458.81476598212,"apogee_km":460.65825668078,"semimajor_km":6837.8735113314,"source":"CELESTRAK","updated_at":"2026-09-21T09:00:32.981604Z"}}}